Total_Precipitation_Accumulation
0.10 0.19 0.41 0.50 0.56 0.54 0.49 0.44 0.42 0.41 0.41 0.43 0.45 0.44 0.40 0.38 0.36 0.34 0.36 0.39 0.46 0.52 0.58 0.62 0.61 0.55 0.47 0.38 0.26 0.16 0.14 0.17 0.13 0.10 0.09 0.11 0.15 0.16 0.13 0.12 0.14 0.20 0.26
0.10 0.18 0.37 0.49 0.61 0.63 0.57 0.50 0.43 0.39 0.41 0.49 0.52 0.49 0.45 0.42 0.41 0.39 0.45 0.47 0.53 0.54 0.57 0.61 0.62 0.51 0.40 0.28 0.19 0.15 0.14 0.08 0.04 0.03 0.02 0.04 0.09 0.12 0.11 0.11 0.14 0.21 0.27
0.14 0.21 0.36 0.50 0.62 0.64 0.57 0.51 0.42 0.39 0.41 0.51 0.58 0.53 0.50 0.47 0.46 0.44 0.47 0.51 0.58 0.58 0.50 0.48 0.47 0.36 0.28 0.18 0.13 0.12 0.11 0.06 0.04 0.03 0.03 0.07 0.10 0.14 0.16 0.14 0.19 0.27 0.28
0.20 0.25 0.37 0.56 0.70 0.72 0.64 0.54 0.47 0.47 0.49 0.54 0.64 0.65 0.60 0.56 0.54 0.54 0.51 0.50 0.55 0.52 0.44 0.38 0.33 0.23 0.18 0.15 0.11 0.10 0.08 0.05 0.04 0.03 0.06 0.09 0.12 0.20 0.21 0.21 0.24 0.30 0.27
0.27 0.32 0.45 0.62 0.80 0.80 0.69 0.60 0.53 0.55 0.59 0.63 0.69 0.75 0.76 0.67 0.64 0.63 0.58 0.51 0.52 0.46 0.37 0.30 0.24 0.16 0.12 0.11 0.10 0.10 0.09 0.06 0.03 0.04 0.07 0.12 0.16 0.25 0.23 0.23 0.26 0.30 0.26
0.35 0.44 0.55 0.69 0.88 0.95 0.79 0.68 0.61 0.62 0.67 0.73 0.78 0.84 0.84 0.81 0.79 0.74 0.60 0.51 0.45 0.39 0.31 0.25 0.22 0.15 0.10 0.09 0.08 0.08 0.10 0.08 0.05 0.05 0.05 0.09 0.16 0.27 0.29 0.26 0.29 0.32 0.31
0.40 0.56 0.72 0.85 0.99 1.13 1.01 0.86 0.78 0.75 0.76 0.81 0.85 0.84 0.86 0.89 0.90 0.83 0.62 0.47 0.41 0.38 0.32 0.24 0.20 0.16 0.12 0.11 0.09 0.08 0.09 0.08 0.07 0.07 0.06 0.09 0.16 0.31 0.36 0.33 0.34 0.37 0.34
0.51 0.65 0.90 1.16 1.22 1.33 1.29 1.07 0.94 0.87 0.88 0.91 0.91 0.90 0.91 0.94 0.96 0.92 0.67 0.49 0.41 0.39 0.36 0.28 0.22 0.19 0.14 0.13 0.11 0.10 0.10 0.07 0.06 0.07 0.07 0.08 0.13 0.24 0.28 0.27 0.29 0.32 0.31
0.78 0.80 0.94 1.18 1.36 1.46 1.48 1.23 1.11 0.98 0.91 0.94 1.00 1.00 0.91 0.86 0.88 0.85 0.67 0.53 0.46 0.47 0.44 0.38 0.30 0.25 0.19 0.16 0.14 0.10 0.08 0.06 0.05 0.07 0.06 0.07 0.11 0.19 0.23 0.23 0.27 0.30 0.32
1.16 1.12 1.08 1.19 1.32 1.51 1.57 1.27 1.11 1.01 0.95 0.95 0.95 0.87 0.74 0.70 0.74 0.74 0.62 0.52 0.48 0.50 0.48 0.42 0.35 0.29 0.24 0.20 0.16 0.11 0.08 0.06 0.06 0.06 0.07 0.08 0.12 0.20 0.24 0.26 0.28 0.31 0.35
1.50 1.49 1.41 1.35 1.31 1.40 1.54 1.36 1.21 1.09 0.98 0.92 0.91 0.81 0.72 0.70 0.70 0.63 0.51 0.45 0.46 0.50 0.53 0.46 0.39 0.33 0.24 0.18 0.16 0.13 0.11 0.09 0.09 0.10 0.10 0.10 0.14 0.22 0.29 0.34 0.35 0.36 0.38
1.59 1.56 1.59 1.56 1.46 1.46 1.51 1.44 1.33 1.16 1.05 0.93 0.84 0.79 0.77 0.73 0.70 0.61 0.54 0.48 0.51 0.51 0.58 0.57 0.46 0.36 0.24 0.18 0.18 0.15 0.14 0.11 0.12 0.13 0.12 0.13 0.20 0.31 0.37 0.39 0.34 0.35 0.39
1.87 1.71 1.66 1.69 1.72 1.63 1.59 1.48 1.35 1.13 1.05 1.03 0.94 0.83 0.80 0.86 0.83 0.79 0.67 0.57 0.58 0.55 0.57 0.55 0.50 0.37 0.25 0.20 0.19 0.15 0.16 0.17 0.15 0.14 0.14 0.15 0.24 0.35 0.40 0.38 0.33 0.32 0.35
2.24 2.07 1.98 2.00 1.96 1.82 1.73 1.60 1.44 1.19 1.02 1.00 1.00 0.97 0.92 0.89 0.80 0.76 0.70 0.57 0.54 0.54 0.56 0.56 0.48 0.41 0.35 0.28 0.26 0.23 0.20 0.20 0.18 0.19 0.19 0.18 0.20 0.30 0.40 0.43 0.40 0.39 0.40
2.40 2.40 2.30 2.28 2.25 2.06 1.97 1.80 1.52 1.32 1.11 0.99 0.98 1.02 0.95 0.86 0.79 0.74 0.70 0.65 0.57 0.55 0.54 0.57 0.57 0.53 0.47 0.41 0.35 0.29 0.26 0.24 0.23 0.24 0.24 0.25 0.23 0.26 0.37 0.48 0.53 0.55 0.59
2.39 2.55 2.60 2.57 2.48 2.30 2.09 1.91 1.64 1.48 1.29 1.18 1.11 1.04 0.97 0.92 0.90 0.86 0.75 0.68 0.62 0.57 0.57 0.62 0.63 0.61 0.56 0.49 0.42 0.36 0.33 0.30 0.25 0.24 0.25 0.25 0.24 0.26 0.33 0.47 0.60 0.71 0.78
2.35 2.58 2.74 2.83 2.94 2.68 2.41 2.16 1.88 1.67 1.51 1.38 1.24 1.11 0.99 0.93 0.98 0.97 0.90 0.76 0.66 0.68 0.67 0.68 0.72 0.74 0.69 0.59 0.52 0.46 0.40 0.36 0.30 0.27 0.27 0.26 0.23 0.21 0.26 0.41 0.57 0.67 0.76
2.34 2.46 2.62 2.64 2.89 2.99 2.83 2.52 2.13 1.87 1.67 1.54 1.42 1.28 1.16 1.02 1.03 1.06 1.01 0.96 0.86 0.82 0.80 0.77 0.74 0.69 0.65 0.59 0.54 0.51 0.48 0.44 0.39 0.36 0.36 0.30 0.25 0.20 0.22 0.31 0.42 0.52 0.62
2.36 2.43 2.60 2.60 2.69 2.89 3.02 2.85 2.54 2.25 1.97 1.79 1.68 1.51 1.40 1.29 1.22 1.21 1.12 1.10 1.12 1.04 0.94 0.88 0.83 0.75 0.70 0.66 0.62 0.61 0.60 0.54 0.48 0.44 0.40 0.33 0.31 0.28 0.26 0.26 0.29 0.36 0.45
2.36 2.54 2.66 2.80 2.84 3.00 3.30 3.28 2.97 2.69 2.43 2.23 2.02 1.89 1.75 1.61 1.49 1.39 1.33 1.28 1.30 1.23 1.11 1.03 0.93 0.86 0.79 0.79 0.77 0.70 0.65 0.59 0.56 0.50 0.44 0.40 0.38 0.37 0.39 0.39 0.39 0.38 0.42
2.05 2.32 2.39 2.63 2.83 3.00 3.10 3.04 2.86 2.64 2.49 2.38 2.32 2.26 2.09 1.91 1.78 1.61 1.48 1.45 1.45 1.37 1.24 1.18 1.14 1.03 0.96 0.97 0.94 0.78 0.66 0.59 0.55 0.50 0.50 0.50 0.45 0.41 0.42 0.48 0.51 0.50 0.42
1.66 1.85 2.00 2.18 2.42 2.64 2.77 2.76 2.79 2.82 2.65 2.43 2.34 2.29 2.25 2.16 2.02 1.83 1.65 1.58 1.55 1.52 1.38 1.29 1.32 1.28 1.17 1.16 1.14 1.09 0.91 0.74 0.58 0.51 0.51 0.50 0.49 0.51 0.47 0.45 0.45 0.48 0.50
1.34 1.53 1.67 1.83 1.99 2.12 2.48 2.74 2.76 2.83 2.76 2.46 2.20 2.04 2.12 2.21 2.22 2.07 1.90 1.83 1.75 1.72 1.64 1.53 1.48 1.44 1.41 1.35 1.36 1.47 1.25 0.95 0.70 0.59 0.58 0.55 0.53 0.56 0.58 0.54 0.51 0.48 0.49
1.06 1.26 1.46 1.65 1.79 1.83 2.09 2.38 2.42 2.30 2.26 2.15 2.08 2.10 2.14 2.18 2.22 2.23 2.13 1.99 1.91 1.86 1.79 1.85 1.88 1.77 1.66 1.52 1.42 1.34 1.31 1.14 1.06 0.85 0.67 0.65 0.63 0.59 0.63 0.63 0.59 0.55 0.52
0.88 0.97 1.18 1.46 1.61 1.67 1.75 1.94 2.16 2.21 2.17 2.18 2.18 2.16 2.11 2.02 2.06 2.15 2.17 2.06 1.88 1.75 1.69 1.75 1.83 1.89 1.78 1.64 1.53 1.44 1.37 1.22 1.13 1.11 0.90 0.74 0.72 0.66 0.65 0.68 0.70 0.71 0.70
0.75 0.76 0.90 1.11 1.40 1.57 1.63 1.72 1.85 1.93 1.91 1.95 2.03 2.08 2.10 2.01 1.90 1.91 1.96 1.93 1.89 1.78 1.66 1.68 1.80 1.87 1.88 1.83 1.70 1.56 1.47 1.37 1.19 1.19 1.12 0.93 0.88 0.80 0.76 0.79 0.82 0.85 0.85